Temperature
28 28 26 26 27 26 26 26 26 26 26 25 25 25 25 25 24 24 24 24 23 22 21 20 21 21 22 22 23 23 24 23 23 22 21 21 20 20 19 19 19 19 19 19
28 26 26 27 27 26 26 25 25 26 26 25 25 25 25 25 24 23 23 22 21 20 20 19 19 19 19 20 21 22 22 23 22 22 22 21 20 20 19 19 19 18 18 18
26 25 26 26 26 24 24 24 23 23 24 25 24 24 25 25 23 22 22 21 20 19 19 18 18 18 18 19 19 20 21 22 22 22 21 21 20 19 19 18 18 18 18 18
25 25 25 24 24 23 22 23 23 22 22 22 23 22 23 22 21 20 20 20 19 19 18 18 17 17 17 17 17 18 19 20 21 21 21 20 20 19 19 18 18 18 18 17
23 23 23 22 22 22 22 23 22 22 22 21 22 22 21 19 17 17 18 19 19 18 18 17 17 16 16 16 16 17 17 18 19 20 20 20 19 19 18 18 18 17 17 17
23 23 22 21 22 23 23 22 23 23 22 20 21 21 18 16 16 16 17 17 18 18 17 17 16 15 15 15 16 16 16 17 17 18 19 19 18 18 18 17 17 16 16 16
23 22 22 21 21 21 21 20 20 20 20 19 19 18 14 15 16 16 16 17 17 16 16 15 15 14 14 14 15 15 15 16 16 16 17 17 17 17 16 16 16 15 15 16
24 21 20 20 19 19 20 20 18 17 18 18 19 16 13 14 14 14 15 15 15 15 15 14 14 13 13 13 14 14 14 14 15 15 15 15 15 15 15 15 15 14 14 15
23 21 21 21 20 19 18 18 19 18 18 18 17 15 15 14 14 14 14 14 14 14 14 13 13 13 13 13 13 13 13 14 14 14 14 14 14 14 14 14 14 14 14 14
22 22 21 21 20 19 19 18 18 17 16 16 16 14 12 12 12 13 13 13 12 12 13 13 13 13 13 13 13 13 13 13 13 13 13 13 13 13 13 13 13 13 13 14
22 22 21 20 18 17 17 17 17 17 16 14 13 12 11 11 11 11 11 11 11 12 12 12 12 13 13 13 13 13 13 13 13 13 13 13 13 13 13 13 13 13 14 14
22 21 21 19 19 19 18 17 16 15 14 14 12 11 11 10 10 10 11 11 11 11 12 12 12 12 13 13 13 13 13 13 13 13 13 13 13 14 14 14 14 14 15 15
19 21 20 18 18 18 17 17 17 16 14 13 12 11 11 10 10 10 10 11 11 11 12 12 12 13 12 12 13 13 13 13 13 13 14 14 14 14 14 14 15 15 15 15
18 21 19 18 17 17 17 17 16 15 13 12 11 11 11 11 11 11 11 11 12 13 13 13 13 13 13 12 12 13 13 13 13 13 14 14 14 14 14 14 15 15 15 15
21 21 20 19 19 19 18 17 16 15 14 12 12 12 12 12 12 12 12 13 13 14 14 14 14 14 13 13 13 12 12 12 13 13 13 13 13 14 14 14 14 14 15 15
21 21 20 19 19 19 18 18 17 16 15 14 14 13 14 14 13 13 14 14 14 14 15 15 14 14 14 14 13 13 12 12 12 12 12 12 13 13 13 13 13 13 14 14
21 21 21 21 20 19 18 18 17 16 16 15 15 14 15 15 15 15 15 15 15 15 15 15 15 15 15 14 14 13 13 12 12 12 12 12 12 12 12 12 12 12 13 13
21 21 21 21 21 19 18 18 18 17 17 17 16 16 16 16 16 15 15 15 15 15 15 15 15 15 15 15 15 14 13 13 12 12 12 12 12 12 12 12 12 12 12 12
20 20 20 21 20 19 18 18 18 18 17 18 17 17 17 17 17 16 16 15 15 15 15 15 15 15 15 15 15 14 14 13 12 12 12 12 11 11 11 11 11 11 11 11
20 20 20 20 20 19 19 19 18 18 17 18 18 18 17 17 16 16 16 16 15 15 15 15 15 15 15 15 15 15 14 13 12 12 12 11 11 11 11 11 11 11 11 11
21 20 20 20 20 20 19 18 18 17 17 18 17 17 17 17 16 16 16 15 15 15 15 15 15 15 15 15 15 15 14 13 13 12 12 12 12 12 11 11 11 11 11 11
22 21 21 21 20 18 18 18 18 18 18 18 17 17 16 16 16 16 16 15 15 15 15 15 15 15 15 15 15 15 14 14 13 13 12 12 12 12 11 11 11 11 10 10
21 21 20 20 18 18 17 18 18 17 18 17 17 16 16 16 16 16 15 15 15 15 15 15 15 15 15 15 15 15 15 14 14 13 13 13 12 12 11 11 11 10 10 10
23 21 20 20 19 18 17 17 16 17 17 16 16 16 16 16 15 15 15 15 15 15 15 15 15 15 15 15 15 15 15 15 14 14 13 13 12 12 11 11 11 11 11 11
22 20 20 20 20 18 17 17 16 16 16 16 15 15 15 15 15 15 15 14 14 15 15 15 15 15 15 15 15 15 15 15 15 14 14 13 13 12 11 11 11 11 10 10
23 21 20 21 20 19 18 17 16 16 16 16 15 15 15 15 15 15 15 14 14 14 15 15 15 15 15 15 15 15 15 15 15 14 14 13 12 12 11 11 11 10 10 10
Wind_Speed
3 4 6 9 10 11 14 14 15 10 3 6 10 6 3 5 3 3 5 7 9 11 12 14 14 14 12 11 10 9 6 8 8 8 8 7 6 6 6 5 5 6 4 4
4 8 10 10 11 11 12 14 14 12 10 9 10 11 3 5 5 5 6 8 11 11 12 13 14 14 15 15 15 14 11 6 8 8 10 9 8 6 6 5 5 6 5 4
8 10 11 11 11 13 13 13 14 14 15 13 14 14 10 7 8 8 7 9 11 11 11 12 12 13 13 14 16 15 16 13 6 7 8 8 8 7 6 6 5 5 5 4
7 12 13 12 13 14 13 15 16 16 15 13 14 12 5 7 10 11 10 10 11 10 10 10 10 12 13 14 14 15 16 16 11 4 7 10 8 8 7 6 5 5 4 3
10 12 12 13 14 14 13 15 18 19 16 16 16 14 3 9 12 12 12 12 11 11 10 10 11 12 13 13 13 13 13 13 13 8 1 5 6 6 5 6 7 5 4 3
10 10 9 11 14 12 14 16 18 15 12 12 10 10 4 9 12 13 14 14 14 13 12 12 12 12 12 12 12 12 12 12 12 11 8 6 7 8 8 7 7 4 3 3
8 13 12 13 15 13 16 13 7 6 3 3 7 5 7 12 15 16 17 16 16 15 13 13 13 13 13 13 12 11 11 11 11 11 11 9 7 7 6 6 6 5 3 2
4 7 12 11 12 12 13 12 8 6 7 8 5 5 6 13 15 16 16 16 17 16 13 13 13 12 12 12 12 11 10 10 9 9 9 9 8 6 5 5 5 4 3 2
7 6 8 9 10 13 11 10 10 8 10 6 3 4 5 16 19 19 19 18 18 16 14 13 12 12 12 12 12 10 9 9 9 8 8 7 6 6 6 5 4 3 2 1
8 2 6 6 9 13 11 10 6 7 7 6 5 5 9 20 21 21 19 19 18 17 14 13 12 12 11 10 9 10 9 9 8 7 6 6 6 6 5 4 3 2 0 1
9 5 6 6 9 13 13 13 9 6 5 5 6 4 10 15 17 18 17 16 16 15 14 13 12 11 10 9 9 8 8 8 8 8 7 6 5 4 2 1 1 2 3 4
6 6 4 9 7 8 12 12 10 5 5 5 3 4 12 13 14 14 14 14 13 13 13 12 11 11 11 11 10 9 8 7 7 6 6 6 6 5 4 3 3 3 4 4
8 7 3 5 4 10 11 13 11 5 4 5 5 5 10 11 13 12 12 12 11 10 10 9 8 8 9 9 9 9 8 7 6 5 6 6 6 5 5 5 5 5 5 6
4 5 10 8 5 6 9 12 13 9 5 4 5 5 9 11 11 11 10 9 8 7 6 7 7 7 7 8 8 8 8 7 6 5 5 6 6 6 5 5 5 5 5 5
6 5 8 7 4 4 8 10 11 11 7 5 4 4 6 7 7 7 7 7 7 7 7 8 8 7 7 7 7 7 6 6 6 6 7 6 6 6 6 6 6 6 7 7
4 2 2 5 4 1 5 8 9 8 7 5 4 5 3 2 3 5 6 7 9 10 10 9 8 7 8 8 7 7 7 7 7 8 8 8 8 8 8 8 7 7 8 8
2 4 5 2 5 3 2 6 6 6 6 5 6 3 3 4 6 7 8 10 11 10 10 9 8 8 7 7 7 7 8 8 8 8 8 8 8 8 8 9 9 8 8 9
6 5 4 4 3 2 6 7 5 4 4 3 2 1 1 2 4 6 7 8 9 9 9 9 8 8 8 8 7 7 7 8 8 7 7 7 8 7 7 7 8 8 7 7
5 4 4 4 3 5 6 6 4 1 4 3 3 4 4 2 4 9 9 8 7 7 8 8 7 7 7 7 7 7 7 8 7 7 7 7 7 7 7 8 7 6 6 6
2 2 4 4 5 3 7 10 6 2 3 5 3 5 7 6 5 7 7 7 7 6 7 8 7 8 8 7 6 7 7 8 7 7 7 7 6 6 7 7 7 6 5 5
4 4 4 5 4 5 10 10 6 2 5 6 4 5 8 9 7 5 6 7 7 6 6 8 8 6 6 6 5 6 6 6 5 5 5 5 6 5 6 6 6 6 5 5
5 3 2 3 3 4 11 8 4 6 7 6 5 6 6 5 5 6 6 6 7 7 7 7 7 7 7 5 6 5 4 3 2 2 3 4 4 6 7 6 6 6 6 6
2 2 3 3 4 7 9 5 6 5 6 6 6 5 3 4 6 6 6 6 6 7 7 6 6 7 7 7 5 5 3 1 0 2 2 2 4 5 6 7 7 6 6 6
2 4 1 2 7 9 9 6 6 4 5 6 5 4 3 4 6 6 5 6 6 7 6 6 7 8 8 7 5 5 5 3 1 2 2 4 6 6 6 6 6 6 7 6
1 4 3 4 6 9 9 8 9 8 6 7 5 4 3 3 4 5 5 6 6 6 6 6 7 7 8 8 7 7 7 7 4 2 4 5 5 5 6 6 6 6 6 5
5 6 4 2 8 7 11 12 12 10 8 8 7 5 4 2 3 5 5 5 5 6 7 7 6 7 8 8 8 8 7 7 6 4 5 5 4 3 4 5 5 8 6 6
Wind_Direction
269 304 16 359 343 323 310 302 301 302 225 244 273 274 173 124 82 31 26 25 29 23 12 14 2 356 347 337 319 299 249 197 185 172 170 165 164 159 156 158 158 157 144 126
265 45 11 343 318 309 312 311 306 309 325 313 297 288 245 144 126 77 35 23 30 19 8 11 5 4 0 355 347 335 323 273 213 187 179 176 168 164 152 146 140 144 152 157
38 28 358 338 338 349 329 328 331 323 318 303 292 280 259 178 121 93 59 40 32 19 10 7 3 1 0 358 351 343 336 325 283 209 186 175 159 154 145 149 148 153 161 164
48 24 3 351 359 350 318 330 323 308 298 288 285 284 293 108 74 45 33 34 30 19 9 7 5 2 2 1 354 350 348 345 334 278 199 178 164 159 154 147 138 132 125 131
59 31 16 2 345 326 316 314 299 286 279 278 276 274 313 55 42 19 7 16 20 14 6 8 12 10 10 7 2 358 1 3 3 6 40 152 140 127 117 119 121 112 93 90
87 63 39 1 333 332 324 311 294 272 255 261 286 287 44 28 16 4 360 5 9 7 8 17 18 16 14 12 11 9 15 20 24 31 41 75 108 116 118 116 116 106 95 79
116 73 43 13 359 353 343 338 333 341 327 309 356 16 50 13 11 3 354 360 5 7 9 18 20 18 16 14 16 18 26 32 35 46 51 59 78 98 112 116 118 120 111 114
4 54 37 17 14 346 347 355 356 330 328 323 355 69 53 10 5 359 354 360 4 7 16 23 24 23 18 16 18 21 29 35 41 54 60 60 65 72 86 91 101 103 106 114
2 72 56 31 26 17 359 1 335 313 308 312 54 86 38 4 1 357 356 0 3 4 14 24 25 23 18 16 18 22 31 38 42 53 60 64 70 77 81 80 81 82 78 93
331 65 86 50 30 33 19 357 348 349 343 337 21 47 2 352 351 349 354 358 0 3 11 21 22 20 15 13 14 24 33 41 41 47 53 66 70 74 80 78 71 68 338 250
336 318 118 70 39 25 18 14 1 342 8 353 345 35 11 350 345 345 351 359 1 5 11 16 15 11 12 11 14 18 23 31 33 34 37 45 53 63 75 92 168 228 242 238
10 320 53 88 90 56 35 17 8 11 14 5 350 22 8 349 348 353 359 5 7 10 12 10 10 13 15 17 19 20 22 23 23 25 27 26 24 21 13 352 325 304 289 274
342 331 15 132 138 41 29 23 22 43 45 24 10 356 353 348 355 359 5 7 6 2 2 3 9 19 21 24 25 27 27 23 19 21 23 16 7 359 350 342 340 333 317 296
294 24 46 52 54 20 25 34 39 45 44 37 30 355 345 349 352 357 5 359 352 353 356 9 14 20 31 34 35 36 35 29 26 31 31 21 7 359 356 354 348 341 335 327
303 57 79 88 83 44 49 49 54 55 58 58 47 20 337 333 342 345 345 347 360 15 26 31 26 25 35 39 38 40 43 41 39 37 35 29 26 19 17 17 15 13 9 10
329 350 161 152 138 59 66 64 65 65 64 80 78 47 336 334 345 347 358 14 27 27 27 31 31 30 39 45 47 41 46 46 47 46 43 37 36 32 30 28 26 31 33 29
318 311 317 126 150 221 94 75 75 69 66 50 47 22 349 30 33 26 21 28 32 27 19 19 28 29 35 49 59 57 50 47 46 47 45 40 37 36 31 28 25 32 43 38
325 326 302 292 228 51 97 106 105 93 95 76 51 42 22 69 77 57 37 33 29 23 13 6 19 32 30 31 48 66 64 53 43 41 47 44 37 32 30 31 35 29 32 39
334 327 306 328 350 123 146 155 164 122 104 101 40 29 12 174 117 59 38 37 35 24 8 355 4 26 27 24 29 46 58 57 43 34 38 39 33 26 23 25 33 36 31 35
214 253 286 301 311 50 123 132 145 205 151 125 74 34 29 54 66 42 27 30 29 27 9 353 359 16 14 9 17 36 52 54 43 30 28 27 25 26 28 21 21 28 30 30
218 199 238 289 302 96 122 136 167 232 122 126 95 53 47 48 46 29 25 26 16 20 17 359 355 0 348 347 5 39 49 56 55 35 23 17 11 27 48 29 22 24 20 21
322 319 317 297 294 128 142 162 193 99 117 125 101 68 55 43 40 30 27 24 13 10 18 3 350 341 328 349 13 25 59 64 78 70 30 11 36 38 37 32 30 26 17 26
225 328 347 0 60 109 154 160 103 121 138 118 100 83 58 37 35 26 21 24 13 8 15 357 345 345 345 359 4 355 35 44 271 110 53 27 62 69 51 33 33 29 28 28
139 106 240 247 170 162 180 157 141 169 126 111 108 106 63 38 32 19 22 30 14 4 1 355 6 1 341 336 349 9 6 335 289 142 94 68 63 68 69 45 37 41 29 24
50 150 216 240 142 152 182 179 169 169 153 143 137 117 81 44 29 12 27 27 7 356 358 9 14 347 336 350 14 27 7 343 341 93 99 87 80 75 87 74 46 47 58 42
201 185 204 235 161 172 184 181 174 170 173 164 156 147 131 86 36 15 27 22 4 0 4 4 359 347 351 1 15 22 2 344 349 43 75 70 79 80 107 123 96 53 67 61
Height
1501 1502 1508 1507 1504 1505 1505 1506 1505 1501 1499 1503 1503 1501 1501 1503 1506 1508 1509 1510 1511 1512 1512 1511 1509 1508 1507 1507 1507 1508 1509 1508 1510 1512 1513 1515 1517 1520 1522 1525 1527 1530 1532 1534
1501 1509 1508 1507 1505 1505 1505 1509 1507 1501 1498 1501 1502 1501 1498 1501 1506 1510 1512 1513 1513 1514 1514 1512 1510 1508 1506 1504 1503 1503 1504 1505 1505 1505 1506 1508 1511 1514 1517 1520 1523 1525 1528 1530
1510 1514 1511 1510 1509 1512 1514 1515 1514 1513 1506 1503 1505 1506 1500 1500 1505 1511 1513 1515 1515 1516 1515 1513 1511 1509 1507 1504 1502 1500 1499 1499 1500 1500 1500 1500 1502 1508 1511 1515 1518 1521 1524 1527
1513 1516 1517 1516 1517 1520 1523 1515 1515 1514 1516 1515 1510 1517 1504 1503 1511 1516 1517 1517 1517 1517 1516 1514 1512 1509 1507 1504 1501 1498 1496 1494 1494 1495 1495 1493 1493 1498 1503 1508 1513 1516 1519 1522
1524 1524 1526 1527 1527 1523 1521 1517 1515 1513 1514 1516 1511 1515 1516 1514 1524 1525 1523 1520 1519 1518 1516 1514 1512 1509 1507 1503 1500 1497 1494 1492 1491 1491 1492 1491 1492 1493 1498 1503 1507 1510 1514 1517
1524 1527 1530 1533 1527 1522 1518 1514 1508 1502 1508 1521 1516 1518 1530 1533 1534 1530 1526 1522 1520 1518 1516 1514 1512 1509 1506 1503 1500 1497 1494 1492 1490 1489 1490 1491 1492 1493 1496 1499 1502 1505 1509 1513
1525 1530 1532 1534 1531 1527 1522 1524 1524 1522 1523 1527 1521 1529 1548 1541 1537 1535 1531 1525 1522 1520 1517 1515 1512 1509 1506 1503 1500 1497 1495 1493 1491 1490 1490 1491 1492 1494 1496 1497 1500 1502 1505 1509
1524 1535 1537 1537 1538 1538 1530 1529 1540 1546 1539 1531 1524 1541 1551 1546 1542 1539 1534 1529 1525 1522 1519 1517 1514 1511 1508 1505 1502 1499 1497 1495 1493 1492 1492 1492 1493 1495 1496 1497 1498 1501 1504 1507
1531 1539 1538 1539 1539 1540 1538 1538 1534 1537 1533 1533 1537 1546 1546 1547 1545 1542 1537 1532 1528 1525 1522 1519 1516 1513 1510 1507 1504 1502 1500 1497 1496 1495 1494 1495 1495 1496 1497 1498 1500 1502 1504 1506
1532 1536 1539 1540 1540 1542 1543 1541 1539 1544 1549 1548 1546 1554 1562 1555 1551 1546 1540 1535 1531 1527 1524 1521 1519 1516 1513 1511 1508 1505 1503 1501 1500 1498 1498 1498 1498 1498 1499 1500 1502 1503 1505 1507
1534 1533 1538 1541 1549 1552 1549 1548 1547 1545 1548 1560 1563 1568 1566 1563 1557 1550 1544 1539 1534 1531 1527 1524 1521 1519 1516 1513 1511 1508 1506 1505 1503 1502 1502 1502 1502 1502 1503 1504 1505 1506 1507 1509
1536 1537 1537 1548 1550 1549 1551 1552 1552 1559 1563 1563 1569 1576 1569 1565 1559 1553 1547 1542 1538 1534 1531 1527 1524 1521 1518 1515 1513 1510 1509 1508 1507 1506 1506 1506 1506 1506 1506 1507 1508 1508 1509 1510
1544 1539 1544 1554 1555 1553 1554 1554 1552 1555 1563 1570 1575 1580 1570 1565 1560 1555 1550 1545 1541 1538 1535 1531 1528 1525 1521 1518 1515 1513 1511 1510 1510 1509 1509 1508 1509 1509 1509 1509 1509 1509 1509 1509
1549 1541 1551 1562 1565 1559 1559 1558 1557 1560 1570 1575 1579 1578 1571 1566 1561 1557 1552 1549 1545 1542 1538 1535 1532 1529 1526 1523 1519 1517 1515 1513 1512 1511 1511 1510 1510 1510 1510 1510 1509 1509 1509 1509
1544 1543 1549 1554 1555 1555 1558 1560 1561 1565 1570 1575 1577 1575 1572 1566 1562 1559 1555 1551 1548 1545 1542 1539 1536 1533 1530 1528 1525 1522 1519 1517 1515 1514 1513 1512 1512 1511 1510 1510 1509 1509 1508 1508
1543 1544 1546 1551 1553 1553 1556 1559 1561 1565 1567 1570 1571 1571 1568 1565 1563 1560 1557 1554 1551 1548 1545 1543 1540 1537 1535 1532 1530 1527 1524 1522 1520 1517 1516 1515 1513 1512 1511 1511 1510 1509 1508 1507
1543 1543 1546 1546 1548 1552 1558 1559 1562 1564 1565 1567 1569 1570 1565 1564 1562 1560 1558 1556 1554 1551 1549 1546 1544 1541 1539 1536 1534 1531 1529 1527 1524 1522 1520 1518 1516 1515 1513 1512 1511 1510 1509 1508
1546 1544 1544 1543 1545 1557 1563 1558 1561 1563 1564 1564 1565 1564 1564 1563 1563 1562 1560 1558 1557 1555 1552 1550 1547 1545 1543 1540 1538 1535 1533 1530 1528 1526 1524 1522 1520 1518 1517 1515 1514 1512 1511 1509
1548 1548 1548 1545 1549 1555 1559 1558 1559 1561 1563 1563 1563 1563 1561 1561 1562 1562 1562 1560 1559 1557 1555 1552 1550 1548 1546 1544 1541 1539 1536 1534 1532 1530 1528 1526 1524 1522 1520 1518 1516 1514 1513 1511
1548 1548 1550 1547 1550 1555 1555 1555 1559 1562 1563 1562 1563 1563 1562 1561 1563 1565 1563 1561 1560 1559 1557 1554 1552 1551 1548 1546 1544 1541 1539 1537 1535 1533 1531 1529 1527 1524 1522 1520 1518 1517 1515 1514
1544 1546 1549 1547 1548 1549 1551 1556 1559 1565 1564 1562 1563 1564 1564 1564 1566 1566 1564 1562 1561 1559 1557 1555 1554 1552 1550 1548 1546 1543 1541 1539 1537 1535 1533 1531 1529 1527 1524 1522 1520 1518 1517 1516
1543 1543 1543 1545 1547 1556 1552 1555 1557 1558 1559 1561 1563 1564 1565 1566 1565 1565 1564 1563 1561 1560 1558 1556 1554 1552 1550 1548 1546 1544 1542 1540 1538 1537 1535 1533 1531 1529 1526 1524 1521 1520 1518 1517
1541 1542 1544 1545 1551 1549 1552 1553 1555 1557 1559 1561 1563 1565 1566 1566 1566 1565 1564 1563 1561 1560 1558 1556 1554 1552 1550 1548 1547 1545 1543 1541 1539 1537 1536 1534 1532 1530 1528 1525 1523 1521 1520 1519
1535 1539 1543 1543 1544 1548 1551 1553 1555 1558 1559 1562 1564 1565 1566 1566 1566 1565 1564 1563 1561 1559 1558 1556 1554 1552 1550 1548 1547 1545 1543 1541 1539 1538 1536 1535 1534 1532 1530 1527 1525 1524 1522 1521
1535 1539 1541 1541 1541 1546 1549 1551 1554 1557 1559 1561 1563 1564 1565 1566 1565 1565 1564 1562 1561 1560 1558 1556 1554 1552 1551 1549 1547 1545 1543 1541 1540 1539 1538 1536 1535 1533 1531 1530 1528 1526 1525 1524
1531 1535 1538 1537 1536 1541 1545 1548 1552 1555 1558 1560 1562 1564 1565 1565 1565 1565 1564 1562 1561 1560 1558 1556 1555 1553 1551 1549 1547 1545 1543 1542 1541 1540 1538 1537 1536 1535 1534 1532 1531 1529 1528 1527